Weather reports worldwide

Advertisment
Malaga/Aeropuerto, Spain (8482): temperature & dewpoint: 06.12.2019 17:00:00 - 12.12.2019 17:00:00 (CET)Malaga/Aeropuerto, Spain (8482): wind speed: 06.12.2019 17:00:00 - 12.12.2019 17:00:00 (CET)Malaga/Aeropuerto, Spain (8482): wind direction: 06.12.2019 17:00:00 - 12.12.2019 17:00:00 (CET)Malaga/Aeropuerto, Spain (8482): reduced air pressure: 06.12.2019 17:00:00 - 12.12.2019 17:00:00 (CET)Malaga/Aeropuerto, Spain (8482): visibility: 06.12.2019 17:00:00 - 12.12.2019 17:00:00 (CET)
Date & Time tt [°C] td [°C] ff [km/h] ff [kn] dd ppp [hPa] vv [km]
12.12.2019 17:00:00 16,6 5,5 26 14 WNW 1023,6 -
12.12.2019 16:00:00 17,0 5,0 28 15 WNW 1023,8 35
12.12.2019 15:00:00 16,9 5,6 29 16 WNW 1024,1 -
12.12.2019 14:00:00 16,7 5,0 26 14 WNW 1024,5 35
12.12.2019 13:00:00 14,0 4,0 24 13 NW 1025,3 35
12.12.2019 12:00:00 13,4 3,2 31 17 WNW 1026,5 -
12.12.2019 11:00:00 13,2 2,8 35 19 WNW 1025,6 -
12.12.2019 10:00:00 11,8 2,4 37 20 W 1025,4 30
12.12.2019 09:00:00 11,8 2,4 34 18 W 1025,7 -
12.12.2019 08:00:00 11,7 2,1 34 18 W 1025,1 15
12.12.2019 07:00:00 11,7 2,1 24 13 W 1025,6 15
12.12.2019 06:00:00 11,8 2,0 39 21 W 1025,9 -
12.12.2019 05:00:00 11,8 2,4 46 25 W 1025,6 -
12.12.2019 04:00:00 11,9 3,1 37 20 WNW 1025,8 15
12.12.2019 03:00:00 12,3 4,1 28 15 W 1026,0 -
12.12.2019 02:00:00 12,4 4,7 22 12 W 1025,8 -
12.12.2019 01:00:00 13,0 4,8 24 13 W 1025,6 15
12.12.2019 00:00:00 13,4 4,9 29 16 WNW 1025,9 -
11.12.2019 23:00:00 13,7 5,4 29 16 WNW 1025,5 -
11.12.2019 22:00:00 14,3 7,5 34 18 WNW 1025,6 15
11.12.2019 21:00:00 15,5 7,7 29 16 WNW 1025,9 -
11.12.2019 20:00:00 16,3 7,4 26 14 NW 1025,3 -
11.12.2019 19:00:00 16,9 8,1 18 10 NW 1024,8 30
11.12.2019 18:00:00 17,9 7,0 21 11 WNW 1024,2 -
11.12.2019 17:00:00 19,3 4,7 15 8 NNW 1023,4 -
11.12.2019 16:00:00 20,3 1,0 13 7 WNW 1023,1 30
11.12.2019 15:00:00 20,6 1,8 18 10 NW 1023,1 -
11.12.2019 14:00:00 21,1 1,5 26 14 WNW 1023,3 30
11.12.2019 13:00:00 21,2 -0,4 26 14 NW 1023,9 30
11.12.2019 12:00:00 20,0 3,1 16 9 W 1024,4 -
11.12.2019 11:00:00 18,3 3,5 16 9 WNW 1025,0 -
11.12.2019 10:00:00 16,7 2,4 22 12 W 1024,5 30
11.12.2019 09:00:00 15,4 1,6 21 11 W 1024,1 -
11.12.2019 08:00:00 12,9 2,0 18 10 W 1024,0 20
11.12.2019 07:00:00 14,6 1,9 28 15 WNW 1023,3 15
11.12.2019 06:00:00 15,2 2,1 28 15 W 1023,2 -
11.12.2019 05:00:00 15,8 2,0 31 17 W 1023,1 -
11.12.2019 04:00:00 16,3 0,0 31 17 W 1023,2 15
11.12.2019 03:00:00 - - - - - - -
11.12.2019 02:00:00 - - - - - - -
11.12.2019 01:00:00 14,5 1,9 15 8 NW 1024,4 15
11.12.2019 00:00:00 13,6 -0,4 18 10 WNW 1024,7 -
10.12.2019 23:00:00 13,7 2,1 13 7 WNW 1024,6 -
10.12.2019 22:00:00 16,2 -0,5 22 12 W 1024,8 15
10.12.2019 21:00:00 16,7 0,8 21 11 W 1024,8 -
10.12.2019 20:00:00 14,8 8,9 11 6 NW 1025,1 -
10.12.2019 19:00:00 15,4 10,1 9 5 NNW 1024,8 15
10.12.2019 18:00:00 16,0 11,3 5 3 NNW 1024,7 -
10.12.2019 17:00:00 17,3 12,1 11 6 E 1024,6 -
10.12.2019 16:00:00 19,6 10,7 11 6 SE 1024,4 30
10.12.2019 15:00:00 19,0 11,6 13 7 SE 1024,7 -
10.12.2019 14:00:00 19,9 11,4 5 3 SE 1025,5 30
10.12.2019 13:00:00 18,8 8,8 2 1 NW 1027,0 30
10.12.2019 12:00:00 16,5 7,4 4 2 NNW 1027,8 -
10.12.2019 11:00:00 13,8 7,4 8 4 WNW 1028,1 -
10.12.2019 10:00:00 11,6 6,8 9 5 WNW 1027,7 30
10.12.2019 09:00:00 9,8 6,4 15 8 WNW 1027,1 -
10.12.2019 08:00:00 11,4 7,0 15 8 NW 1027,0 30
10.12.2019 07:00:00 11,9 7,3 18 10 WNW 1026,8 20
10.12.2019 06:00:00 12,3 7,5 15 8 NW 1026,5 -
10.12.2019 05:00:00 12,8 7,7 16 9 WNW 1026,9 -
10.12.2019 04:00:00 13,6 8,0 15 8 NW 1026,9 20
10.12.2019 03:00:00 15,8 8,0 22 12 W 1026,8 -
10.12.2019 02:00:00 16,3 8,5 24 13 W 1027,0 -
10.12.2019 01:00:00 16,6 8,6 24 13 W 1027,6 20
10.12.2019 00:00:00 16,8 9,1 22 12 W 1027,6 -
09.12.2019 23:00:00 17,0 9,3 29 16 W 1027,4 -
09.12.2019 22:00:00 17,0 9,7 31 17 W 1027,7 20
09.12.2019 21:00:00 16,9 9,9 31 17 W 1027,6 -
09.12.2019 20:00:00 17,1 9,9 29 16 W 1027,3 -
09.12.2019 19:00:00 17,3 10,2 29 16 W 1027,0 20
09.12.2019 18:00:00 18,2 10,6 26 14 W 1026,5 -
09.12.2019 17:00:00 19,4 10,5 26 14 W 1026,1 -
09.12.2019 16:00:00 19,6 10,6 28 15 W 1026,1 40
09.12.2019 15:00:00 20,0 11,0 26 14 W 1026,4 -
09.12.2019 14:00:00 20,1 11,0 29 16 W 1026,8 40
09.12.2019 13:00:00 19,3 11,3 34 18 W 1027,6 40
09.12.2019 12:00:00 17,6 11,3 37 20 W 1028,2 -
09.12.2019 11:00:00 17,7 11,6 35 19 W 1028,5 -
09.12.2019 10:00:00 17,1 11,2 31 17 W 1028,2 30
09.12.2019 09:00:00 15,9 10,9 35 19 W 1027,5 -
09.12.2019 08:00:00 15,3 10,9 35 19 W 1026,7 20
09.12.2019 07:00:00 15,3 10,8 39 21 W 1026,5 15
09.12.2019 06:00:00 15,0 10,2 35 19 W 1026,4 -
09.12.2019 05:00:00 15,6 9,7 34 18 W 1026,2 -
09.12.2019 04:00:00 15,9 9,7 26 14 W 1026,3 15
09.12.2019 03:00:00 15,9 8,8 34 18 WNW 1026,2 -
09.12.2019 02:00:00 16,2 8,0 26 14 W 1026,7 -
09.12.2019 01:00:00 16,3 7,8 22 12 W 1026,8 15
09.12.2019 00:00:00 16,2 8,1 18 10 WNW 1026,6 -
08.12.2019 23:00:00 15,9 8,7 22 12 WNW 1026,2 -
08.12.2019 22:00:00 16,8 8,6 18 10 W 1026,1 15
08.12.2019 21:00:00 17,7 8,5 22 12 WNW 1026,3 -
08.12.2019 20:00:00 17,8 8,6 13 7 W 1026,1 -
08.12.2019 19:00:00 18,6 7,6 18 10 NW 1025,5 40
08.12.2019 18:00:00 19,5 6,8 21 11 NW 1024,8 -
08.12.2019 17:00:00 20,7 7,8 16 9 NW 1024,4 -
08.12.2019 16:00:00 21,6 7,4 22 12 WNW 1024,3 40
08.12.2019 15:00:00 21,4 7,9 18 10 WNW 1024,1 -
08.12.2019 14:00:00 21,0 7,9 22 12 W 1024,7 40
08.12.2019 13:00:00 19,9 8,4 16 9 W 1025,7 40
08.12.2019 12:00:00 17,8 9,1 13 7 W 1026,7 -
08.12.2019 11:00:00 13,9 9,5 11 6 WNW 1027,0 -
08.12.2019 10:00:00 11,4 7,7 15 8 WNW 1026,7 40
08.12.2019 09:00:00 9,4 7,0 13 7 WNW 1026,3 -
08.12.2019 08:00:00 9,3 7,4 16 9 WNW 1026,1 20
08.12.2019 07:00:00 8,4 7,3 5 3 WNW 1025,6 15
08.12.2019 06:00:00 8,4 7,4 13 7 W 1025,4 -
08.12.2019 05:00:00 8,5 7,7 13 7 W 1025,5 -
08.12.2019 04:00:00 9,1 7,9 16 9 W 1025,9 12
08.12.2019 03:00:00 9,5 8,4 13 7 WNW 1026,0 -
08.12.2019 02:00:00 9,8 8,6 11 6 WNW 1026,0 -
08.12.2019 01:00:00 10,6 9,2 15 8 W 1026,4 12
08.12.2019 00:00:00 11,3 9,6 11 6 WNW 1026,4 -
07.12.2019 23:00:00 11,7 9,9 8 4 WNW 1026,2 -
07.12.2019 22:00:00 12,6 10,7 8 4 W 1025,7 15
07.12.2019 21:00:00 12,9 10,9 4 2 WSW 1025,2 -
07.12.2019 20:00:00 14,5 12,6 9 5 E 1024,7 -
07.12.2019 19:00:00 15,1 12,4 13 7 ESE 1024,1 20
07.12.2019 18:00:00 16,0 10,8 11 6 SSE 1023,3 -
07.12.2019 17:00:00 17,6 10,5 16 9 S 1022,7 -
07.12.2019 16:00:00 18,3 10,6 16 9 SSE 1022,3 30
07.12.2019 15:00:00 18,3 12,1 15 8 SSE 1022,4 -
07.12.2019 14:00:00 18,5 12,0 15 8 SSE 1022,7 30
07.12.2019 13:00:00 19,6 9,8 11 6 SSE 1023,4 30
07.12.2019 12:00:00 16,9 10,8 11 6 W 1024,0 -
07.12.2019 11:00:00 14,4 10,3 9 5 WNW 1023,9 -
07.12.2019 10:00:00 13,0 9,9 15 8 WNW 1023,3 30
07.12.2019 09:00:00 13,0 10,1 13 7 WNW 1022,7 -
07.12.2019 08:00:00 12,3 10,4 13 7 WNW 1022,2 15
07.12.2019 07:00:00 13,2 10,5 15 8 WNW 1021,7 15
07.12.2019 06:00:00 12,6 10,6 15 8 WNW 1021,5 -
07.12.2019 05:00:00 12,7 10,6 13 7 WNW 1021,4 -
07.12.2019 04:00:00 12,9 10,7 11 6 WNW 1021,6 15
07.12.2019 03:00:00 13,4 10,8 16 9 WNW 1021,7 -
07.12.2019 02:00:00 13,4 10,7 13 7 W 1021,7 -
07.12.2019 01:00:00 14,1 11,0 9 5 W 1021,9 15
07.12.2019 00:00:00 14,3 11,1 11 6 W 1022,0 -
06.12.2019 23:00:00 14,3 11,5 9 5 WNW 1021,5 -
06.12.2019 22:00:00 13,7 12,0 9 5 W 1021,4 15
06.12.2019 21:00:00 14,0 11,9 5 3 WNW 1021,3 -
06.12.2019 20:00:00 14,3 12,1 8 4 S 1021,0 -
06.12.2019 19:00:00 15,3 12,1 8 4 SSE 1020,4 20
06.12.2019 18:00:00 16,3 12,3 13 7 SE 1019,7 -
06.12.2019 17:00:00 18,3 11,2 11 6 SE 1019,1 -

tt = temperature
td = dewpoint
ff = wind speed
dd = wind direction
ppp = reduced air pressure
vv = visibility

Next stations